This is the latest recevied weather packets stored in our database for station/object K0QED. If no packets are shown the sender has not sent any weather packets the latest 10 day(s).
| Time | Temp. | Humidity | Pressure | Rain* | Wind** | Luminosity | Snow |
|---|---|---|---|---|---|---|---|
| 1788451328 | 23.89° C | 32% | 1024.5 hPa | 0 mm | - | 403 W/m² | - |
| 1788451027 | 23.33° C | 32% | 1024.5 hPa | 0 mm | - | 76 W/m² | - |
| 1788450723 | 22.78° C | 33% | 1024.7 hPa | 0 mm | - | 35 W/m² | - |
| 1788450418 | 22.78° C | 34% | 1024.4 hPa | 0 mm | - | 37 W/m² | - |
| 1788450114 | 22.22° C | 34% | 1024.9 hPa | 0 mm | - | 29 W/m² | - |
| 1788449809 | 22.22° C | 34% | 1024.5 hPa | 0 mm | - | 40 W/m² | - |
| 1788449505 | 22.22° C | 34% | 1024.6 hPa | 0 mm | - | 28 W/m² | - |
| 1788449201 | 22.78° C | 33% | 1024.9 hPa | 0 mm | - | 36 W/m² | - |
| 1788448897 | 22.22° C | 35% | 1024.5 hPa | 0 mm | - | 27 W/m² | - |
| 1788448597 | 22.22° C | 34% | 1024.5 hPa | 0 mm | - | 28 W/m² | - |
| 1788448291 | 22.22° C | 36% | 1024.6 hPa | 0 mm | - | 26 W/m² | - |
| 1788447991 | 22.22° C | 36% | 1024.7 hPa | 0 mm | - | 94 W/m² | - |
| 1788447686 | 21.67° C | 35% | 1024.6 hPa | 0 mm | - | 66 W/m² | - |
| 1788447386 | 21.67° C | 36% | 1024.7 hPa | 0 mm | - | 52 W/m² | - |
| 1788447081 | 21.11° C | 37% | 1025 hPa | 0 mm | - | 39 W/m² | - |
| 1788446780 | 21.11° C | 38% | 1024.7 hPa | 0 mm | - | 54 W/m² | - |
| 1788446476 | 21.11° C | 38% | 1025 hPa | 0 mm | - | 59 W/m² | - |
| 1788446172 | 20.56° C | 40% | 1024.9 hPa | 0 mm | - | 25 W/m² | - |
| 1788445868 | 20.56° C | 39% | 1024.7 hPa | 0 mm | - | 26 W/m² | - |
| 1788445563 | 20° C | 40% | 1024.6 hPa | 0 mm | - | 23 W/m² | - |
| 1788445260 | 19.44° C | 41% | 1024.7 hPa | 0 mm | - | 34 W/m² | - |
| 1788444955 | 19.44° C | 42% | 1024.9 hPa | 0 mm | - | 28 W/m² | - |
| 1788444650 | 18.89° C | 41% | 1024.6 hPa | 0 mm | - | 21 W/m² | - |
| 1788444346 | 18.89° C | 43% | 1024.6 hPa | 0 mm | - | 21 W/m² | - |
| 1788444041 | 17.78° C | 46% | 1024.6 hPa | 0 mm | - | 21 W/m² | - |
* Rain latest hour (hover to see other rain measurements)
** Current wind speed in m/s (hover to see current wind gust speed)